Location: Unspecified
(0.0000°N, 0.0000°E)
Time: 22:14:34
(UTC+00:00)

ISS - Visible Passes

Search period start: 27 April 2015 00:00
Search period end: 07 May 2015 00:00
Orbit: 395 x 402 km, 51.6° (Epoch: 27 April)

Date Brightness Start Highest point End Pass type
(mag) Time Alt. Az. Time Alt. Az. Time Alt. Az.
27 Apr -1.0 19:13:20 10° NNE 19:14:06 13° NNE 19:14:06 13° NNE visible
28 Apr -0.4 19:54:30 10° NW 19:55:26 17° WNW 19:55:26 17° WNW visible
29 Apr -3.3 19:00:12 10° NNW 19:03:22 60° NE 19:04:12 42° ESE visible
30 Apr -0.4 19:44:02 10° WSW 19:45:24 12° SW 19:45:34 12° SW visible
01 May -1.8 18:48:07 10° WNW 18:51:05 32° SW 18:54:01 10° SSE visible
03 May -2.0 05:26:40 10° SSW 05:29:40 38° SE 05:32:41 10° NE visible
03 May -0.2 18:38:00 10° WSW 18:38:43 10° SW 18:39:14 10° SW visible
04 May -0.5 04:33:40 10° SSE 04:35:16 13° SE 04:37:00 10° E visible
05 May -3.1 05:14:23 13° SW 05:17:05 51° NW 05:20:12 10° NNE visible
06 May -2.3 04:22:53 43° ESE 04:22:53 43° ESE 04:25:45 10° NE visible
